Marrakech, Morocco

7:06 PM WEST on April 23, 2017 (GMT +0100)
Marrakech

Weather History for GMMX - May, 2014

Change the Weather History Date:

Tuesday, May 20, 2014

  Actual Average Record
Temperature  
Mean Temperature 68 °F -  
Max Temperature 78 °F 87 °F 100 °F (2003)
Min Temperature 58 °F 61 °F 51 °F (2013)
Cooling Degree Days 3    
Growing Degree Days 18 (Base 50)    
Moisture  
Dew Point 52 °F    
Average Humidity 67    
Maximum Humidity 88    
Minimum Humidity 30    
Precipitation  
Precipitation 0.00 in 0.01 in - ()
Sea Level Pressure  
Sea Level Pressure 29.93 in    
Wind  
Wind Speed 8 mph ()    
Max Wind Speed 20 mph    
Max Gust Speed -    
Visibility 6.1 miles    
Events      
Averages and records for this station are not official NWS values.
T = Trace of Precipitation, MM = Missing Value Source: Averaged Metar Reports

Daily Weather History Graph

Daily Weather History Graph

Search for Another Location

Airport or City:

Trip Planner

Search our weather history database for the weather conditions in past years. The results will help you decide how hot, cold, wet, or windy it might be!

Date:

Astronomy

May. 20, 2014 Rise Set
Actual Time 6:32 AM WEST 8:24 PM WEST
Civil Twilight 6:05 AM WEST 8:52 PM WEST
Nautical Twilight 5:33 AM WEST 9:24 PM WEST
Astronomical Twilight 4:58 AM WEST 9:59 PM WEST
Moon 12:53 AM WEST (5/20) 12:15 PM WEST (5/20)
Length of Visible Light 14h 46m
Length of Day
13h 52m
Waning Gibbous, 62% of the Moon is Illuminated
May 20
Waning Gibbous
May 21
Last Quarter
May 28
New
Jun 5
First Quarter
Jun 13
Full

Hourly Weather History & Observations

Time (WEST) Temp. Dew Point Humidity Pressure Visibility Wind Dir Wind Speed Gust Speed Precip Events Conditions
12:00 AM 62.6 °F 51.8 °F 68% 29.95 in 6.2 mi West 11.5 mph - N/A   Scattered Clouds
12:30 AM 62.6 °F 51.8 °F 68% 29.95 in 6.2 mi West 9.2 mph - N/A   Scattered Clouds
12:48 AM 60 °F 52 °F 68% 29.93 in 6 mi West 8.1 mph - -   Partly Cloudy
1:00 AM 60.8 °F 51.8 °F 72% 29.95 in 6.2 mi West 8.1 mph - N/A   Scattered Clouds
1:30 AM 60.8 °F 51.8 °F 72% 29.95 in 6.2 mi West 8.1 mph - N/A   Scattered Clouds
2:00 AM 59.0 °F 51.8 °F 77% 29.92 in 6.2 mi West 5.8 mph - N/A   Scattered Clouds
2:30 AM 59.0 °F 51.8 °F 77% 29.92 in 6.2 mi WSW 3.5 mph - N/A   Scattered Clouds
3:00 AM 59.0 °F 51.8 °F 77% 29.92 in 6.2 mi WSW 4.6 mph - N/A   Mostly Cloudy
3:30 AM 59.0 °F 53.6 °F 82% 29.92 in 6.2 mi West 4.6 mph - N/A   Mostly Cloudy
4:00 AM 60 °F 54 °F 73% 29.89 in 6 mi West 5.8 mph - -   Mostly Cloudy
4:00 AM 60.8 °F 53.6 °F 77% 29.92 in 6.2 mi West 5.8 mph - N/A   Mostly Cloudy
4:30 AM 60.8 °F 53.6 °F 77% 29.92 in 6.2 mi West 8.1 mph - N/A   Unknown
5:00 AM 60.8 °F 53.6 °F 77% 29.92 in 6.2 mi West 8.1 mph - N/A   Mostly Cloudy
5:30 AM 60.8 °F 53.6 °F 77% 29.92 in 6.2 mi West 9.2 mph - N/A   Mostly Cloudy
6:00 AM 59.0 °F 53.6 °F 82% 29.92 in 6.2 mi West 8.1 mph - N/A   Mostly Cloudy
6:30 AM 59.0 °F 53.6 °F 82% 29.92 in 6.2 mi West 5.8 mph - N/A   Mostly Cloudy
7:00 AM 59 °F 54 °F 79% 29.91 in 5 mi West 5.8 mph - -   Overcast
7:00 AM 59.0 °F 53.6 °F 82% 29.92 in 5.0 mi West 5.8 mph - N/A   Overcast
7:30 AM 59.0 °F 55.4 °F 88% 29.95 in 3.7 mi SW 4.6 mph - N/A   Overcast
8:00 AM 59.0 °F 55.4 °F 88% 29.95 in 6.2 mi SW 4.6 mph - N/A   Overcast
8:30 AM 59.0 °F 55.4 °F 88% 29.95 in 6.2 mi SSW 3.5 mph - N/A   Overcast
9:00 AM 60.8 °F 55.4 °F 82% 29.95 in 6.2 mi WSW 4.6 mph - N/A   Overcast
9:30 AM 60.8 °F 55.4 °F 82% 29.95 in 6.2 mi WSW 3.5 mph - N/A   Overcast
10:00 AM 61 °F 54 °F 72% 29.93 in 6 mi West 3.5 mph - -   Overcast
10:00 AM 60.8 °F 55.4 °F 82% 29.95 in 6.2 mi WSW 3.5 mph - N/A   Overcast
10:30 AM 62.6 °F 55.4 °F 77% 29.95 in 6.2 mi Variable 2.3 mph - N/A   Overcast
11:00 AM 64.4 °F 53.6 °F 68% 29.95 in 6.2 mi Variable 3.5 mph - N/A   Overcast
11:30 AM 64.4 °F 53.6 °F 68% 29.95 in 6.2 mi Variable 3.5 mph - N/A   Overcast
12:00 PM 66.2 °F 53.6 °F 64% 29.95 in 6.2 mi SW 5.8 mph - N/A   Mostly Cloudy
12:30 PM 68.0 °F 53.6 °F 60% 29.95 in 6.2 mi Variable 4.6 mph - N/A   Mostly Cloudy
1:00 PM 68.0 °F 51.8 °F 56% 29.92 in 6.2 mi Variable 4.6 mph - N/A   Mostly Cloudy
5:00 PM 77.0 °F 48.2 °F 36% 29.86 in 6.2 mi Variable 6.9 mph - N/A   Partly Cloudy
5:30 PM 78.8 °F 48.2 °F 34% 29.86 in 6.2 mi NW 5.8 mph - N/A   Partly Cloudy
6:00 PM 78.8 °F 48.2 °F 34% 29.86 in 6.2 mi WNW 11.5 mph - N/A   Unknown
6:30 PM 77.0 °F 48.2 °F 36% 29.89 in 6.2 mi West 18.4 mph - N/A   Partly Cloudy
7:00 PM 74 °F 49 °F 30% 29.83 in 6 mi West 18.4 mph - -   Scattered Clouds
7:00 PM 75.2 °F 48.2 °F 38% 29.89 in 6.2 mi West 18.4 mph - N/A   Partly Cloudy
7:30 PM 71.6 °F 51.8 °F 50% 29.89 in 6.2 mi West 19.6 mph - N/A   Partly Cloudy
8:00 PM 69.8 °F 51.8 °F 53% 29.92 in 6.2 mi West 18.4 mph - N/A   Partly Cloudy
8:30 PM 66.2 °F 51.8 °F 60% 29.92 in 6.2 mi West 16.1 mph - N/A   Partly Cloudy
9:00 PM 66.2 °F 50.0 °F 56% 29.95 in 6.2 mi West 13.8 mph - N/A   Scattered Clouds
9:30 PM 64.4 °F 50.0 °F 59% 29.95 in 6.2 mi West 12.7 mph - N/A   Scattered Clouds
10:00 PM 63 °F 50 °F 53% 29.96 in 6 mi West 15.0 mph - -   Partly Cloudy
10:00 PM 62.6 °F 50.0 °F 63% 29.98 in 6.2 mi West 15.0 mph - N/A   Scattered Clouds
10:30 PM 62.6 °F 50.0 °F 63% 30.01 in 6.2 mi West 15.0 mph - N/A   Mostly Cloudy
11:00 PM 60.8 °F 50.0 °F 68% 30.01 in 6.2 mi West 13.8 mph - N/A   Mostly Cloudy
11:30 PM 62.6 °F 51.8 °F 68% 30.01 in 6.2 mi WNW 11.5 mph - N/A   Mostly Cloudy